TimeEST,TemperatureF,Dew PointF,Humidity,Sea Level PressureIn,VisibilityMPH,Wind Direction,Wind SpeedMPH,Gust SpeedMPH,PrecipitationIn,Events,Conditions,WindDirDegrees,DateUTC
12:51 AM,27.1,10.0,49,30.45,10.0,North,11.5,-,N/A,,Overcast,360,2013-02-17 05:51:00
1:51 AM,27.1,5.0,39,30.45,10.0,North,10.4,-,N/A,,Overcast,350,2013-02-17 06:51:00
2:51 AM,26.1,3.0,37,30.43,10.0,North,11.5,18.4,N/A,,Scattered Clouds,350,2013-02-17 07:51:00
3:51 AM,25.2,4.1,41,30.39,10.0,North,13.8,21.9,N/A,,Mostly Cloudy,350,2013-02-17 08:51:00
4:12 AM,24.8,6.8,46,29.63,10.0,North,13.8,21.9,N/A,,Mostly Cloudy,350,2013-02-17 09:12:00
4:42 AM,23.0,6.8,50,29.62,10.0,NNW,13.8,20.7,N/A,,Scattered Clouds,330,2013-02-17 09:42:00
4:51 AM,23.0,7.2,51,30.37,10.0,NNW,21.9,32.2,N/A,,Scattered Clouds,340,2013-02-17 09:51:00
5:51 AM,20.1,11.1,68,30.35,2.0,North,18.4,27.6,N/A,,Haze,350,2013-02-17 10:51:00
5:56 AM,19.4,12.2,74,29.59,1.2,NNW,18.4,28.8,N/A,,Haze,330,2013-02-17 10:56:00
5:59 AM,19.4,12.2,74,29.59,1.0,NNW,17.3,28.8,N/A,,Haze,340,2013-02-17 10:59:00
6:06 AM,19.4,12.2,74,29.59,1.0,NNW,16.1,25.3,N/A,,Haze,330,2013-02-17 11:06:00
6:33 AM,19.4,14.0,80,29.56,1.2,NNW,17.3,-,N/A,,Haze,340,2013-02-17 11:33:00
6:43 AM,19.4,14.0,80,29.55,1.5,NNW,20.7,25.3,N/A,,Haze,330,2013-02-17 11:43:00
6:51 AM,18.1,13.1,81,30.30,1.0,NNW,15.0,26.5,N/A,,Haze,340,2013-02-17 11:51:00
7:22 AM,17.6,12.2,79,29.54,0.8,NNW,18.4,-,0.00,Snow,Light Snow,330,2013-02-17 12:22:00
7:31 AM,17.6,12.2,79,29.53,1.0,NNW,16.1,-,0.00,Snow,Light Snow,340,2013-02-17 12:31:00
7:51 AM,18.1,12.0,77,30.28,1.0,NNW,18.4,26.5,0.00,Snow,Light Snow,340,2013-02-17 12:51:00
8:00 AM,17.6,12.2,79,29.51,1.2,NNW,19.6,27.6,0.00,Snow,Light Snow,330,2013-02-17 13:00:00
8:10 AM,17.6,12.2,79,29.50,1.0,NNW,21.9,27.6,0.00,Snow,Light Snow,330,2013-02-17 13:10:00
8:42 AM,17.6,12.2,79,29.48,1.5,NNW,19.6,-,0.00,Snow,Light Snow,340,2013-02-17 13:42:00
8:51 AM,18.1,12.0,77,30.23,1.8,NNW,20.7,27.6,0.00,Snow,Light Snow,330,2013-02-17 13:51:00
8:58 AM,17.6,12.2,79,29.47,1.2,NNW,20.7,28.8,0.00,Snow,Light Snow,330,2013-02-17 13:58:00
9:08 AM,17.6,12.2,79,29.47,1.0,NNW,19.6,34.5,0.00,Snow,Light Snow,330,2013-02-17 14:08:00
9:36 AM,17.6,12.2,79,29.44,1.2,NNW,25.3,35.7,0.00,Snow,Light Snow,330,2013-02-17 14:36:00
9:38 AM,17.6,12.2,79,29.44,1.0,NNW,23.0,35.7,0.00,Snow,Light Snow,340,2013-02-17 14:38:00
9:51 AM,18.1,12.0,77,30.19,0.8,NW,20.7,32.2,0.00,Snow,Light Snow,320,2013-02-17 14:51:00
9:57 AM,17.6,12.2,79,29.44,1.0,NNW,23.0,32.2,0.00,Snow,Light Snow,330,2013-02-17 14:57:00
10:22 AM,19.4,10.4,68,29.43,1.5,NNW,24.2,34.5,0.00,Snow,Light Snow,330,2013-02-17 15:22:00
10:26 AM,19.4,10.4,68,29.43,1.0,NNW,27.6,34.5,0.00,Snow,Light Snow,340,2013-02-17 15:26:00
10:36 AM,19.4,10.4,68,29.43,1.5,NNW,21.9,33.4,0.00,Snow,Light Snow,330,2013-02-17 15:36:00
10:44 AM,19.4,10.4,68,29.42,1.0,NNW,29.9,39.1,0.00,Snow,Light Snow,340,2013-02-17 15:44:00
10:51 AM,20.1,10.0,65,30.18,0.8,NNW,24.2,39.1,0.00,Snow,Light Snow,330,2013-02-17 15:51:00
10:54 AM,19.4,10.4,68,29.42,1.2,NNW,21.9,34.5,0.00,Snow,Light Snow,340,2013-02-17 15:54:00
11:05 AM,19.4,8.6,63,29.42,1.0,NNW,32.2,40.3,0.00,Snow,Light Snow,330,2013-02-17 16:05:00
11:25 AM,19.4,8.6,63,29.42,1.5,NNW,25.3,36.8,0.00,Snow,Light Snow,330,2013-02-17 16:25:00
11:27 AM,19.4,8.6,63,29.42,1.5,NNW,20.7,35.7,0.00,Snow,Light Snow,330,2013-02-17 16:27:00
11:34 AM,19.4,8.6,63,29.42,1.5,NNW,23.0,39.1,0.00,Snow,Light Snow,330,2013-02-17 16:34:00
11:51 AM,20.1,8.1,60,30.17,1.5,NNW,21.9,36.8,0.00,Snow,Light Snow,330,2013-02-17 16:51:00
11:58 AM,21.2,8.6,58,29.41,1.5,NNW,27.6,38.0,0.00,Snow,Light Snow,330,2013-02-17 16:58:00
12:24 PM,21.2,8.6,58,29.41,1.5,NNW,27.6,39.1,0.00,Snow,Light Snow,330,2013-02-17 17:24:00
12:38 PM,21.2,6.8,54,29.41,1.5,NW,28.8,36.8,0.00,Snow,Light Snow,320,2013-02-17 17:38:00
12:51 PM,21.0,7.2,55,30.17,10.0,NNW,20.7,42.6,0.00,Snow,Blowing Snow,330,2013-02-17 17:51:00
12:53 PM,21.2,6.8,54,29.41,10.0,NW,17.3,35.7,N/A,Snow,Blowing Snow,320,2013-02-17 17:53:00
1:51 PM,23.0,4.1,44,30.17,10.0,NW,32.2,43.7,N/A,Snow,Blowing Snow,320,2013-02-17 18:51:00
1:58 PM,21.2,5.0,50,29.42,10.0,North,36.8,46.0,N/A,Snow,Blowing Snow,350,2013-02-17 18:58:00
2:51 PM,23.0,0.1,37,30.18,10.0,NNW,26.5,40.3,N/A,Snow,Blowing Snow,340,2013-02-17 19:51:00
3:40 PM,21.2,1.4,42,29.45,1.8,NNW,33.4,46.0,N/A,Snow,Blowing Snow,330,2013-02-17 20:40:00
3:51 PM,22.1,1.0,40,30.22,2.5,NNW,26.5,38.0,N/A,Snow,Blowing Snow,330,2013-02-17 20:51:00
3:58 PM,21.2,-0.4,39,29.46,10.0,NW,20.7,32.2,N/A,Snow,Blowing Snow,320,2013-02-17 20:58:00
4:51 PM,22.1,-0.9,37,30.25,10.0,NW,23.0,36.8,N/A,Snow,Blowing Snow,310,2013-02-17 21:51:00
5:51 PM,21.0,-0.9,38,30.29,10.0,NNW,28.8,40.3,N/A,Snow,Blowing Snow,340,2013-02-17 22:51:00
6:51 PM,21.0,-1.8,37,30.29,10.0,NNW,26.5,39.1,N/A,Snow,Blowing Snow,330,2013-02-17 23:51:00
7:51 PM,20.1,-1.8,38,30.31,10.0,NNW,21.9,47.2,N/A,Snow,Blowing Snow,330,2013-02-18 00:51:00
8:51 PM,19.0,-1.8,40,30.35,10.0,NNW,17.3,34.5,N/A,,Clear,340,2013-02-18 01:51:00
9:51 PM,17.1,-1.8,43,30.40,10.0,NW,18.4,24.2,N/A,,Clear,310,2013-02-18 02:51:00
10:51 PM,16.2,-1.8,45,30.43,10.0,NW,16.1,29.9,N/A,,Clear,310,2013-02-18 03:51:00